Moriarty, NM

6:08 PM MDT on July 27, 2017 (GMT -0600)
Moriarty

Weather History for K0E0 - April, 2013

Change the Weather History Date:

Wednesday, April 24, 2013

  Actual Average (KABQ) Record (KABQ)
Temperature  
Mean Temperature 40 °F -  
Max Temperature 69 °F 73 °F 88 °F (1996)
Min Temperature 12 °F 42 °F 28 °F (1913)
Degree Days  
Heating Degree Days 24    
Moisture  
Dew Point 16 °F    
Average Humidity 46    
Maximum Humidity 86    
Minimum Humidity 12    
Precipitation  
Precipitation 0.00 in - - ()
Sea Level Pressure  
Sea Level Pressure 30.19 in    
Wind  
Wind Speed 5 mph (SSE)    
Max Wind Speed 17 mph    
Max Gust Speed 21 mph    
Visibility 10 miles    
Events      
Averages and records for this station are not official NWS values.
T = Trace of Precipitation, MM = Missing Value Source: NWS Daily Summary

Daily Weather History Graph

Daily Weather History Graph

Search for Another Location

Airport or City:

Trip Planner

Search our weather history database for the weather conditions in past years. The results will help you decide how hot, cold, wet, or windy it might be!

Date:

Astronomy

Apr. 24, 2013 Rise Set
Actual Time 6:20 AM MDT 7:44 PM MDT
Civil Twilight 5:54 AM MDT 8:10 PM MDT
Nautical Twilight 5:22 AM MDT 8:42 PM MDT
Astronomical Twilight 4:49 AM MDT 9:16 PM MDT
Moon 6:51 PM MDT (4/24) 5:23 AM MDT (4/24)
Length of Visible Light 14h 16m
Length of Day
13h 23m
Waxing Gibbous, 98% of the Moon is Illuminated
Apr 24
Waxing Gibbous
Apr 25
Full
May 2
Last Quarter
May 9
New
May 17
First Quarter

Hourly Weather History & Observations

Time (MDT) Temp. Windchill Dew Point Humidity Pressure Visibility Wind Dir Wind Speed Gust Speed Precip Events Conditions
12:15 AM 23.9 °F - 16.5 °F 73% 30.23 in 10.0 mi Calm Calm - N/A   Clear
12:35 AM 24.4 °F 20.1 °F 17.2 °F 74% 30.23 in 10.0 mi SSE 3.5 mph - N/A   Clear
12:55 AM 23.0 °F - 16.3 °F 76% 30.23 in 10.0 mi Calm Calm - N/A   Clear
1:15 AM 21.9 °F - 15.1 °F 75% 30.23 in 10.0 mi Calm Calm - N/A   Clear
1:35 AM 21.7 °F 15.5 °F 16.0 °F 78% 30.23 in 10.0 mi South 4.6 mph - N/A   Clear
1:55 AM 20.7 °F 13.0 °F 14.5 °F 77% 30.23 in 10.0 mi SSE 5.8 mph - N/A   Clear
2:15 AM 21.0 °F 13.4 °F 15.4 °F 79% 30.22 in 10.0 mi SSE 5.8 mph - N/A   Clear
2:35 AM 21.0 °F 16.2 °F 15.6 °F 80% 30.22 in 10.0 mi South 3.5 mph - N/A   Clear
2:55 AM 17.6 °F 8.2 °F 13.1 °F 83% 30.22 in 10.0 mi South 6.9 mph - N/A   Clear
3:15 AM 18.3 °F 8.2 °F 14.2 °F 84% 30.24 in 10.0 mi South 8.1 mph - N/A   Clear
3:35 AM 17.6 °F 12.3 °F 13.1 °F 83% 30.23 in 10.0 mi SSE 3.5 mph - N/A   Clear
3:55 AM 18.1 °F 12.9 °F 14.0 °F 84% 30.23 in 10.0 mi SSE 3.5 mph - N/A   Clear
4:15 AM 16.2 °F 9.0 °F 11.8 °F 83% 30.24 in 10.0 mi SSW 4.6 mph - N/A   Clear
4:55 AM 16.7 °F 7.2 °F 12.7 °F 84% 30.23 in 10.0 mi South 6.9 mph - N/A   Clear
5:15 AM 15.8 °F 7.2 °F 12.2 °F 86% 30.23 in 10.0 mi SSW 5.8 mph - N/A   Clear
5:35 AM 16.5 °F 6.9 °F 12.9 °F 86% 30.23 in 10.0 mi SW 6.9 mph - N/A   Clear
5:55 AM 17.4 °F 10.4 °F 13.1 °F 83% 30.23 in 10.0 mi WSW 4.6 mph - N/A   Clear
6:15 AM 16.9 °F - 11.5 °F 79% 30.23 in 10.0 mi Calm Calm - N/A   Clear
6:35 AM 12.7 °F 6.7 °F 9.1 °F 86% 30.24 in 10.0 mi NE 3.5 mph - N/A   Clear
6:55 AM 14.2 °F - 10.6 °F 86% 30.24 in 10.0 mi Calm Calm - N/A   Clear
7:15 AM 17.1 °F - 12.4 °F 82% 30.25 in 10.0 mi Calm Calm - N/A   Clear
7:35 AM 21.0 °F - 15.4 °F 79% 30.26 in 10.0 mi Calm Calm - N/A   Clear
7:55 AM 23.7 °F - 16.7 °F 75% 30.26 in 10.0 mi Calm Calm - N/A   Clear
8:15 AM 25.7 °F - 17.8 °F 72% 30.26 in 10.0 mi Calm Calm - N/A   Clear
8:35 AM 27.7 °F - 18.1 °F 67% 30.26 in 10.0 mi Calm Calm - N/A   Clear
8:55 AM 29.7 °F 26.1 °F 18.7 °F 64% 30.25 in 10.0 mi ESE 3.5 mph - N/A   Clear
9:15 AM 31.5 °F - 19.0 °F 60% 30.25 in 10.0 mi Calm Calm - N/A   Clear
9:35 AM 33.8 °F - 19.4 °F 56% 30.25 in 10.0 mi Calm Calm - N/A   Clear
9:55 AM 36.0 °F 33.3 °F 19.6 °F 51% 30.24 in 10.0 mi NE 3.5 mph - N/A   Clear
10:15 AM 38.1 °F 35.7 °F 19.6 °F 47% 30.23 in 10.0 mi SSE 3.5 mph - N/A   Clear
10:35 AM 41.9 °F 37.5 °F 18.3 °F 39% 30.23 in 10.0 mi ESE 6.9 mph - N/A   Clear
10:55 AM 43.9 °F 38.8 °F 17.8 °F 35% 30.23 in 10.0 mi South 9.2 mph - N/A   Clear
11:15 AM 46.4 °F 41.5 °F 18.5 °F 33% 30.23 in 10.0 mi South 10.4 mph - N/A   Clear
11:35 AM 48.7 °F - 19.2 °F 31% 30.22 in 10.0 mi South 6.9 mph 16.1 mph N/A   Clear
12:15 PM 52.5 °F - 19.0 °F 27% 30.20 in 10.0 mi South 11.5 mph 17.3 mph N/A   Clear
12:35 PM 53.8 °F - 18.9 °F 25% 30.19 in 10.0 mi South 9.2 mph - N/A   Clear
12:55 PM 55.2 °F - 18.3 °F 24% 30.17 in 10.0 mi SSW 10.4 mph 16.1 mph N/A   Clear
1:15 PM 57.7 °F - 18.3 °F 22% 30.17 in 10.0 mi South 12.7 mph - N/A   Clear
1:35 PM 60.1 °F - 18.7 °F 20% 30.16 in 10.0 mi South 11.5 mph - N/A   Clear
1:55 PM 60.6 °F - 18.5 °F 20% 30.15 in 10.0 mi SSE 6.9 mph 16.1 mph N/A   Clear
2:15 PM 62.1 °F - 18.3 °F 18% 30.14 in 10.0 mi SE 5.8 mph - N/A   Clear
2:35 PM 63.1 °F - 17.4 °F 17% 30.13 in 10.0 mi Calm Calm - N/A   Clear
2:55 PM 65.1 °F - 17.8 °F 16% 30.12 in 10.0 mi East 8.1 mph - N/A   Clear
3:15 PM 65.8 °F - 17.6 °F 16% 30.11 in 10.0 mi Calm Calm - N/A   Clear
3:35 PM 68.4 °F - 18.1 °F 15% 30.10 in 10.0 mi North 5.8 mph 17.3 mph N/A   Clear
3:55 PM 68.0 °F - 17.6 °F 15% 30.08 in 10.0 mi NE 11.5 mph 18.4 mph N/A   Clear
4:15 PM 68.4 °F - 16.7 °F 14% 30.08 in 10.0 mi NE 6.9 mph - N/A   Clear
4:35 PM 68.7 °F - 16.7 °F 14% 30.08 in 10.0 mi Calm Calm - N/A   Clear
4:55 PM 67.8 °F - 15.8 °F 14% 30.08 in 10.0 mi Calm Calm - N/A   Clear
5:15 PM 69.3 °F - 16.0 °F 13% 30.08 in 10.0 mi West 6.9 mph - N/A   Clear
5:35 PM 69.3 °F - 15.6 °F 13% 30.08 in 10.0 mi North 4.6 mph - N/A   Clear
5:55 PM 69.3 °F - 14.7 °F 12% 30.08 in 10.0 mi WNW 9.2 mph 16.1 mph N/A   Clear
6:15 PM 68.7 °F - 14.0 °F 12% 30.08 in 10.0 mi West 10.4 mph 20.7 mph N/A   Clear
6:35 PM 68.2 °F - 14.0 °F 12% 30.10 in 10.0 mi West 9.2 mph - N/A   Clear
6:55 PM 65.5 °F - 14.0 °F 14% 30.10 in 10.0 mi West 10.4 mph - N/A   Clear
7:15 PM 63.5 °F - 13.3 °F 14% 30.10 in 10.0 mi WNW 6.9 mph - N/A   Clear
7:35 PM 60.1 °F - 12.2 °F 15% 30.10 in 10.0 mi WNW 6.9 mph - N/A   Clear
7:55 PM 58.5 °F - 11.8 °F 16% 30.12 in 10.0 mi West 6.9 mph - N/A   Clear
9:15 PM 51.8 °F - 14.2 °F 22% 30.16 in 10.0 mi ESE 9.2 mph - N/A   Clear
9:35 PM 51.6 °F - 19.4 °F 28% 30.17 in 10.0 mi SE 15.0 mph 19.6 mph N/A   Clear
9:55 PM 50.9 °F - 19.4 °F 29% 30.17 in 10.0 mi SE 16.1 mph - N/A   Clear
10:15 PM 50.5 °F - 20.1 °F 30% 30.18 in 10.0 mi ESE 17.3 mph - N/A   Clear
10:35 PM 49.5 °F - 20.3 °F 32% 30.19 in 10.0 mi ESE 12.7 mph - N/A   Clear
10:55 PM 48.0 °F - 20.3 °F 33% 30.19 in 10.0 mi SE 12.7 mph - N/A   Clear
11:15 PM 46.8 °F - 20.1 °F 35% 30.19 in 10.0 mi SE 12.7 mph - N/A   Clear
11:35 PM 46.4 °F 41.1 °F 20.3 °F 36% 30.18 in 10.0 mi ESE 11.5 mph - N/A   Clear
11:55 PM 45.7 °F 40.6 °F 20.3 °F 37% 30.19 in 10.0 mi East 10.4 mph - N/A   Clear